Disclaimer

Please do not use the information listed here in-flight or in-navigation, as they are not provided to us by the airports but are provided by volunteers, so they might be outdated.

Search


Regions


Airport information page

Radio informations:
Tower (TWR) - 121.3 MHz
METEO - 134.9 MHz

Airport informations:
Latitude: 48° 15' 33.56" N
Longitude: 025° 58' 50.99" E
Elevation: 826 feet - 252 meters
Operating hours: Remarks
Operating agency: Civil government, landing fees and diplomatic clearance may be required
Timezone: UTC+2(+3DT) - Last Sunday in March to last Sunday in October
Fuel: N/A

Runway information:
15/33 - 7270 x 138 feet< - >2216 x 42 meters

Recent METARs:
UKLN 212030Z 00000MPS 9999 OVC022 M05/M09 Q1022 R33/850330 NOSIG
UKLN 212030Z 00000MPS 9999 OVC022 M05/M09 Q1022 R33/850330 NOSIG
UKLN 212030Z 00000MPS 9999 OVC022 M05/M09 Q1022 R33/850330 NOSIG

Airport on the map: